EN

Hourly Weather Lagarto

Today, 5 August, Thursday

Time Temperature Precipitation Wind Pressure Humidity
00:00 +20°C° 0 mm 1 mps 752 mmHg 94%
01:00 +20°C° 0 mm 1 mps 752 mmHg 95%
02:00 +19°C° 0 mm 1 mps 752 mmHg 95%
03:00 +19°C° 0 mm 1 mps 751 mmHg 94%
04:00 +19°C° 0 mm 1 mps 752 mmHg 94%
05:00 +19°C° 0 mm 1 mps 752 mmHg 94%
06:00 +19°C° 0 mm 1 mps 752 mmHg 94%
07:00 +20°C° 0 mm 2 mps 753 mmHg 87%
08:00 +23°C° 0 mm 2 mps 753 mmHg 80%
09:00 +24°C° 0 mm 2 mps 754 mmHg 75%
10:00 +26°C° 0 mm 3 mps 753 mmHg 67%
11:00 +27°C° 0 mm 3 mps 753 mmHg 58%
12:00 +29°C° 0 mm 3 mps 752 mmHg 50%
13:00 +29°C° 0 mm 4 mps 752 mmHg 50%
14:00 +29°C° 0 mm 4 mps 751 mmHg 49%
15:00 +29°C° 0 mm 5 mps 751 mmHg 48%
16:00 +27°C° 0 mm 4 mps 751 mmHg 59%
17:00 +24°C° 0 mm 3 mps 752 mmHg 70%
18:00 +21°C° 0 mm 2 mps 752 mmHg 81%
19:00 +21°C° 0 mm 2 mps 752 mmHg 85%
20:00 +20°C° 0 mm 2 mps 753 mmHg 88%
21:00 +20°C° 0 mm 1 mps 753 mmHg 91%
22:00 +20°C° 0 mm 1 mps 753 mmHg 92%
23:00 +20°C° 0 mm 1 mps 753 mmHg 93%

Tomorrow, 6 August, Friday

Time Temperature Precipitation Wind Pressure Humidity
00:00 +20°C° 0 mm 1 mps 753 mmHg 94%
01:00 +20°C° 0 mm 1 mps 752 mmHg 94%
02:00 +20°C° 0 mm 1 mps 752 mmHg 94%
03:00 +21°C° 0 mm 1 mps 752 mmHg 95%
04:00 +21°C° 0.1 mm 1 mps 752 mmHg 95%
05:00 +21°C° 0.1 mm 1 mps 752 mmHg 95%
06:00 +21°C° 0.1 mm 1 mps 753 mmHg 95%
07:00 +23°C° 0.4 mm 2 mps 753 mmHg 90%
08:00 +24°C° 0.4 mm 3 mps 753 mmHg 85%
09:00 +25°C° 0.4 mm 4 mps 754 mmHg 81%
10:00 +26°C° 0.8 mm 4 mps 754 mmHg 79%
11:00 +26°C° 0.8 mm 5 mps 753 mmHg 78%
12:00 +26°C° 0.8 mm 6 mps 753 mmHg 76%
13:00 +26°C° 0.7 mm 6 mps 753 mmHg 78%
14:00 +25°C° 0.7 mm 5 mps 752 mmHg 80%
15:00 +25°C° 0.7 mm 5 mps 752 mmHg 82%
16:00 +23°C° 0.2 mm 4 mps 752 mmHg 86%
17:00 +22°C° 0.2 mm 3 mps 752 mmHg 90%
18:00 +21°C° 0.2 mm 3 mps 752 mmHg 94%
19:00 +20°C° 0.1 mm 2 mps 753 mmHg 95%
20:00 +20°C° 0.1 mm 2 mps 753 mmHg 96%
21:00 +20°C° 0.1 mm 2 mps 753 mmHg 97%
22:00 +20°C° 0 mm 2 mps 753 mmHg 96%
23:00 +19°C° 0 mm 2 mps 753 mmHg 96%

Day after tomorrow, 7 August, Saturday

Time Temperature Precipitation Wind Pressure Humidity
00:00 +19°C° 0 mm 2 mps 753 mmHg 95%
01:00 +19°C° 0.1 mm 2 mps 752 mmHg 96%
02:00 +19°C° 0.1 mm 2 mps 752 mmHg 96%
03:00 +20°C° 0.1 mm 1 mps 752 mmHg 96%
04:00 +20°C° 0.3 mm 1 mps 752 mmHg 96%
05:00 +19°C° 0.3 mm 2 mps 752 mmHg 96%
06:00 +19°C° 0.3 mm 2 mps 752 mmHg 97%
07:00 +21°C° 0.4 mm 3 mps 752 mmHg 91%
08:00 +22°C° 0.4 mm 4 mps 753 mmHg 85%
09:00 +25°C° 0.4 mm 5 mps 753 mmHg 79%
10:00 +26°C° 0.1 mm 5 mps 753 mmHg 69%
11:00 +28°C° 0.1 mm 5 mps 752 mmHg 58%
12:00 +29°C° 0.1 mm 6 mps 752 mmHg 48%
13:00 +29°C° 0 mm 6 mps 752 mmHg 51%
14:00 +28°C° 0 mm 5 mps 751 mmHg 54%
15:00 +28°C° 0 mm 5 mps 750 mmHg 56%
16:00 +26°C° 0.1 mm 4 mps 751 mmHg 68%
17:00 +24°C° 0.1 mm 3 mps 751 mmHg 79%
18:00 +21°C° 0.1 mm 2 mps 751 mmHg 91%
19:00 +20°C° 0.5 mm 2 mps 751 mmHg 93%
20:00 +20°C° 0.5 mm 2 mps 752 mmHg 95%
21:00 +21°C° 0.5 mm 1 mps 752 mmHg 97%
22:00 +20°C° 0.6 mm 2 mps 752 mmHg 96%
23:00 +20°C° 0.6 mm 2 mps 752 mmHg 94%

8 August, Sunday

Time Temperature Precipitation Wind Pressure Humidity
00:00 +21°C° 0.6 mm 2 mps 752 mmHg 93%
01:00 +20°C° 0.1 mm 2 mps 752 mmHg 91%
02:00 +20°C° 0.1 mm 2 mps 751 mmHg 88%
03:00 +20°C° 0.1 mm 2 mps 751 mmHg 86%
04:00 +20°C° 0 mm 2 mps 751 mmHg 86%
05:00 +20°C° 0 mm 1 mps 751 mmHg 86%
06:00 +20°C° 0 mm 1 mps 751 mmHg 86%
07:00 +21°C° 0 mm 2 mps 752 mmHg 76%
08:00 +24°C° 0 mm 3 mps 752 mmHg 66%
09:00 +26°C° 0 mm 4 mps 753 mmHg 57%
10:00 +27°C° 0 mm 5 mps 752 mmHg 54%
11:00 +28°C° 0 mm 5 mps 752 mmHg 52%
12:00 +29°C° 0 mm 5 mps 751 mmHg 49%
13:00 +28°C° 0 mm 5 mps 751 mmHg 52%
14:00 +28°C° 0 mm 5 mps 750 mmHg 55%
15:00 +27°C° 0 mm 5 mps 750 mmHg 58%
16:00 +25°C° 0 mm 4 mps 750 mmHg 66%
17:00 +24°C° 0 mm 3 mps 751 mmHg 74%
18:00 +21°C° 0 mm 2 mps 751 mmHg 83%
19:00 +21°C° 0 mm 1 mps 751 mmHg 85%
20:00 +21°C° 0 mm 1 mps 752 mmHg 87%
21:00 +21°C° 0 mm 1 mps 752 mmHg 89%
22:00 +21°C° 0 mm 1 mps 752 mmHg 89%
23:00 +18°C° 0 mm 0 mps 752 mmHg 89%

9 August, Monday

Time Temperature Precipitation Wind Pressure Humidity
00:00 +18°C° 0 mm 0 mps 752 mmHg 89%
01:00 +18°C° 0 mm 0 mps 751 mmHg 90%
02:00 +18°C° 0 mm 0 mps 751 mmHg 90%
03:00 +17°C° 0 mm 0 mps 751 mmHg 91%
04:00 +18°C° 0 mm 0 mps 751 mmHg 91%
05:00 +20°C° 0 mm 1 mps 751 mmHg 91%
06:00 +20°C° 0 mm 1 mps 751 mmHg 91%
07:00 +22°C° 0 mm 1 mps 752 mmHg 82%
08:00 +24°C° 0 mm 2 mps 752 mmHg 74%
09:00 +26°C° 0 mm 3 mps 753 mmHg 66%
10:00 +27°C° 0 mm 3 mps 752 mmHg 62%
11:00 +28°C° 0 mm 3 mps 752 mmHg 57%
12:00 +29°C° 0 mm 4 mps 752 mmHg 53%
13:00 +29°C° 0 mm 4 mps 751 mmHg 54%
14:00 +29°C° 0 mm 4 mps 751 mmHg 54%
15:00 +29°C° 0 mm 5 mps 750 mmHg 55%
16:00 +27°C° 0 mm 4 mps 751 mmHg 64%
17:00 +25°C° 0 mm 3 mps 751 mmHg 74%
18:00 +23°C° 0 mm 2 mps 751 mmHg 83%
19:00 +21°C° 0 mm 2 mps 752 mmHg 87%
20:00 +21°C° 0 mm 2 mps 752 mmHg 91%
21:00 +21°C° 0 mm 1 mps 752 mmHg 95%
22:00 +21°C° 0 mm 1 mps 752 mmHg 95%
23:00 +21°C° 0 mm 1 mps 752 mmHg 96%

10 August, Tuesday

Time Temperature Precipitation Wind Pressure Humidity
00:00 +21°C° 0 mm 1 mps 752 mmHg 96%
01:00 +21°C° 0 mm 1 mps 751 mmHg 96%
02:00 +21°C° 0 mm 1 mps 751 mmHg 95%
03:00 +21°C° 0 mm 1 mps 751 mmHg 95%
04:00 +21°C° 0.1 mm 1 mps 751 mmHg 94%
05:00 +22°C° 0.1 mm 1 mps 751 mmHg 94%
06:00 +22°C° 0.1 mm 1 mps 751 mmHg 93%
07:00 +24°C° 0.1 mm 2 mps 752 mmHg 85%
08:00 +25°C° 0.1 mm 3 mps 752 mmHg 77%
09:00 +27°C° 0.1 mm 4 mps 752 mmHg 69%
10:00 +28°C° 0.1 mm 4 mps 752 mmHg 63%
11:00 +29°C° 0.1 mm 4 mps 752 mmHg 57%
12:00 +30°C° 0.1 mm 4 mps 751 mmHg 50%
13:00 +29°C° 0 mm 5 mps 751 mmHg 51%
14:00 +29°C° 0 mm 5 mps 750 mmHg 52%
15:00 +29°C° 0 mm 5 mps 750 mmHg 53%
16:00 +27°C° 0 mm 4 mps 750 mmHg 63%
17:00 +25°C° 0 mm 3 mps 750 mmHg 73%
18:00 +23°C° 0 mm 2 mps 750 mmHg 83%
19:00 +23°C° 0 mm 2 mps 751 mmHg 84%
20:00 +23°C° 0 mm 2 mps 751 mmHg 86%
21:00 +22°C° 0 mm 1 mps 752 mmHg 87%
22:00 +22°C° 0 mm 1 mps 751 mmHg 88%
23:00 +22°C° 0 mm 1 mps 751 mmHg 89%
Show more